• In Belgium
  • List of Countries
  • For 7 days
  • Water Temperature
  • Satellite Maps
  • Weather Map
  • Weather Widgets
  • user-avatar
    Login

    Hourly Weather Banning

    Today, 24 February, Saturday

    Time Temperature Precipitation Wind Pressure Humidity
    00:00 +2°C° 0 mm 3 mps 704 mmHg 35%
    01:00 +2°C° 0 mm 2 mps 704 mmHg 34%
    02:00 +2°C° 0 mm 2 mps 704 mmHg 33%
    03:00 +2°C° 0 mm 2 mps 704 mmHg 32%
    04:00 +2°C° 0 mm 2 mps 704 mmHg 31%
    05:00 +3°C° 0 mm 1 mps 704 mmHg 29%
    06:00 +3°C° 0 mm 1 mps 705 mmHg 28%
    07:00 +3°C° 0 mm 1 mps 705 mmHg 27%
    08:00 +6°C° 0 mm 1 mps 705 mmHg 23%
    09:00 +8°C° 0 mm 1 mps 705 mmHg 18%
    10:00 +11°C° 0 mm 1 mps 706 mmHg 14%
    11:00 +12°C° 0 mm 2 mps 705 mmHg 14%
    12:00 +12°C° 0 mm 3 mps 704 mmHg 14%
    13:00 +13°C° 0 mm 3 mps 704 mmHg 14%
    14:00 +13°C° 0 mm 4 mps 703 mmHg 16%
    15:00 +13°C° 0 mm 4 mps 702 mmHg 18%
    16:00 +13°C° 0 mm 4 mps 701 mmHg 19%
    17:00 +11°C° 0 mm 4 mps 701 mmHg 25%
    18:00 +8°C° 0 mm 4 mps 701 mmHg 31%
    19:00 +7°C° 0 mm 3 mps 700 mmHg 37%
    20:00 +5°C° 0 mm 3 mps 701 mmHg 39%
    21:00 +5°C° 0 mm 3 mps 701 mmHg 41%
    22:00 +4°C° 0 mm 3 mps 701 mmHg 43%
    23:00 +4°C° 0 mm 3 mps 701 mmHg 43%

    Tomorrow, 25 February, Sunday

    Time Temperature Precipitation Wind Pressure Humidity
    00:00 +5°C° 0 mm 2 mps 701 mmHg 43%
    01:00 +5°C° 0 mm 2 mps 702 mmHg 43%
    02:00 +5°C° 0 mm 2 mps 702 mmHg 42%
    03:00 +5°C° 0 mm 2 mps 702 mmHg 40%
    04:00 +4°C° 0 mm 3 mps 702 mmHg 38%
    05:00 +4°C° 0 mm 3 mps 702 mmHg 36%
    06:00 +4°C° 0 mm 3 mps 703 mmHg 35%
    07:00 +5°C° 0 mm 3 mps 703 mmHg 33%
    08:00 +8°C° 0 mm 3 mps 703 mmHg 29%
    09:00 +10°C° 0 mm 2 mps 704 mmHg 24%
    10:00 +13°C° 0 mm 2 mps 704 mmHg 19%
    11:00 +14°C° 0 mm 2 mps 704 mmHg 18%
    12:00 +15°C° 0 mm 2 mps 704 mmHg 17%
    13:00 +16°C° 0 mm 2 mps 703 mmHg 16%
    14:00 +16°C° 0 mm 2 mps 703 mmHg 17%
    15:00 +16°C° 0 mm 2 mps 702 mmHg 17%
    16:00 +16°C° 0 mm 2 mps 702 mmHg 17%
    17:00 +14°C° 0 mm 2 mps 702 mmHg 21%
    18:00 +12°C° 0 mm 1 mps 701 mmHg 25%
    19:00 +10°C° 0 mm 1 mps 701 mmHg 29%
    20:00 +9°C° 0 mm 1 mps 701 mmHg 29%
    21:00 +9°C° 0 mm 1 mps 701 mmHg 30%
    22:00 +8°C° 0 mm 1 mps 701 mmHg 30%
    23:00 +8°C° 0 mm 1 mps 700 mmHg 30%

    Day after tomorrow, 26 February, Monday

    Time Temperature Precipitation Wind Pressure Humidity
    00:00 +7°C° 0 mm 1 mps 700 mmHg 30%
    01:00 +7°C° 0 mm 1 mps 699 mmHg 29%
    02:00 +7°C° 0 mm 1 mps 699 mmHg 30%
    03:00 +6°C° 0 mm 1 mps 698 mmHg 30%
    04:00 +6°C° 0 mm 1 mps 698 mmHg 31%
    05:00 +6°C° 0 mm 1 mps 698 mmHg 31%
    06:00 +6°C° 0 mm 2 mps 698 mmHg 32%
    07:00 +6°C° 0 mm 2 mps 698 mmHg 32%
    08:00 +8°C° 0 mm 2 mps 698 mmHg 29%
    09:00 +10°C° 0 mm 3 mps 698 mmHg 26%
    10:00 +13°C° 0 mm 3 mps 699 mmHg 23%
    11:00 +13°C° 0 mm 4 mps 698 mmHg 24%
    12:00 +14°C° 0 mm 5 mps 697 mmHg 26%
    13:00 +14°C° 0 mm 5 mps 697 mmHg 27%
    14:00 +13°C° 0 mm 5 mps 696 mmHg 32%
    15:00 +13°C° 0 mm 6 mps 695 mmHg 37%
    16:00 +11°C° 0 mm 6 mps 694 mmHg 42%
    17:00 +9°C° 0 mm 5 mps 694 mmHg 51%
    18:00 +8°C° 0 mm 5 mps 694 mmHg 61%
    19:00 +6°C° 0 mm 4 mps 694 mmHg 71%
    20:00 +6°C° 0.1 mm 4 mps 694 mmHg 71%
    21:00 +6°C° 0.1 mm 4 mps 694 mmHg 72%
    22:00 +5°C° 0.1 mm 4 mps 695 mmHg 73%
    23:00 +5°C° 0.1 mm 4 mps 694 mmHg 72%

    27 February, Tuesday

    Time Temperature Precipitation Wind Pressure Humidity
    00:00 +4°C° 0.1 mm 4 mps 694 mmHg 72%
    01:00 +4°C° 0.1 mm 4 mps 694 mmHg 71%
    02:00 +3°C° 0.1 mm 3 mps 694 mmHg 70%
    03:00 +3°C° 0.1 mm 3 mps 694 mmHg 69%
    04:00 +2°C° 0.1 mm 3 mps 694 mmHg 68%
    05:00 +3°C° 0.1 mm 2 mps 694 mmHg 67%
    06:00 +3°C° 0.1 mm 2 mps 695 mmHg 67%
    07:00 +3°C° 0.1 mm 2 mps 695 mmHg 66%
    08:00 +4°C° 0.1 mm 2 mps 696 mmHg 61%
    09:00 +5°C° 0.1 mm 2 mps 696 mmHg 56%
    10:00 +5°C° 0.1 mm 2 mps 697 mmHg 51%
    11:00 +6°C° 0.1 mm 2 mps 697 mmHg 49%
    12:00 +7°C° 0.1 mm 3 mps 697 mmHg 46%
    13:00 +7°C° 0.1 mm 3 mps 697 mmHg 44%
    14:00 +8°C° 0.1 mm 3 mps 697 mmHg 42%
    15:00 +7°C° 0.1 mm 4 mps 697 mmHg 40%
    16:00 +7°C° 0.1 mm 4 mps 696 mmHg 39%
    17:00 +6°C° 0 mm 4 mps 697 mmHg 42%
    18:00 +5°C° 0 mm 3 mps 697 mmHg 44%
    19:00 +4°C° 0 mm 3 mps 698 mmHg 47%
    20:00 +5°C° 0 mm 2 mps 698 mmHg 51%
    21:00 +4°C° 0 mm 2 mps 698 mmHg 54%
    22:00 +4°C° 0 mm 2 mps 699 mmHg 57%
    23:00 +4°C° 0 mm 2 mps 699 mmHg 60%

    28 February, Wednesday

    Time Temperature Precipitation Wind Pressure Humidity
    00:00 +3°C° 0 mm 2 mps 699 mmHg 62%
    01:00 +3°C° 0 mm 2 mps 699 mmHg 64%
    02:00 +3°C° 0 mm 2 mps 699 mmHg 64%
    03:00 +3°C° 0 mm 2 mps 699 mmHg 64%
    04:00 +3°C° 0 mm 2 mps 700 mmHg 64%
    05:00 +3°C° 0 mm 2 mps 700 mmHg 63%
    06:00 +3°C° 0 mm 2 mps 701 mmHg 62%
    07:00 +4°C° 0 mm 2 mps 701 mmHg 61%
    08:00 +6°C° 0 mm 2 mps 701 mmHg 56%
    09:00 +8°C° 0 mm 2 mps 702 mmHg 51%
    10:00 +10°C° 0 mm 2 mps 702 mmHg 46%
    11:00 +11°C° 0 mm 3 mps 702 mmHg 43%
    12:00 +12°C° 0 mm 3 mps 702 mmHg 41%
    13:00 +12°C° 0 mm 3 mps 701 mmHg 39%
    14:00 +12°C° 0 mm 3 mps 701 mmHg 40%
    15:00 +12°C° 0 mm 3 mps 700 mmHg 41%
    16:00 +12°C° 0 mm 3 mps 700 mmHg 43%
    17:00 +10°C° 0 mm 3 mps 700 mmHg 50%
    18:00 +9°C° 0 mm 2 mps 700 mmHg 57%
    19:00 +7°C° 0 mm 2 mps 700 mmHg 65%
    20:00 +7°C° 0 mm 2 mps 700 mmHg 66%
    21:00 +6°C° 0 mm 2 mps 700 mmHg 67%
    22:00 +6°C° 0 mm 2 mps 700 mmHg 68%
    23:00 +5°C° 0 mm 2 mps 700 mmHg 66%

    1 March, Thursday

    Time Temperature Precipitation Wind Pressure Humidity
    00:00 +5°C° 0 mm 2 mps 700 mmHg 64%
    01:00 +5°C° 0 mm 2 mps 699 mmHg 63%
    02:00 +5°C° 0 mm 2 mps 699 mmHg 61%
    03:00 +4°C° 0 mm 2 mps 699 mmHg 60%
    04:00 +4°C° 0 mm 2 mps 699 mmHg 59%
    05:00 +6°C° 0 mm 1 mps 699 mmHg 57%
    06:00 +6°C° 0 mm 1 mps 699 mmHg 56%
    07:00 +6°C° 0 mm 1 mps 699 mmHg 54%
    08:00 +7°C° 0 mm 2 mps 699 mmHg 50%
    09:00 +9°C° 0 mm 2 mps 700 mmHg 45%
    10:00 +12°C° 0 mm 2 mps 700 mmHg 40%
    11:00 +11°C° 0 mm 3 mps 699 mmHg 39%
    12:00 +12°C° 0 mm 3 mps 699 mmHg 39%
    13:00 +12°C° 0 mm 3 mps 698 mmHg 39%
    14:00 +12°C° 0 mm 4 mps 698 mmHg 43%
    15:00 +11°C° 0 mm 4 mps 697 mmHg 48%
    16:00 +11°C° 0 mm 4 mps 697 mmHg 52%
    17:00 +10°C° 0 mm 4 mps 697 mmHg 59%
    18:00 +8°C° 0 mm 3 mps 697 mmHg 66%
    19:00 +7°C° 0 mm 3 mps 697 mmHg 73%
    20:00 +7°C° 0 mm 3 mps 697 mmHg 74%
    21:00 +7°C° 0 mm 3 mps 697 mmHg 75%
    22:00 +7°C° 0 mm 3 mps 697 mmHg 76%
    23:00 +7°C° 0.2 mm 3 mps 697 mmHg 77%
    Show more